Accueil
METAR-TAF:

METAR-TAF

Aéroports :

Deering, Alaska, États-Unis

latitude: 66-05N, longitude: 162-45W, altitude: 5 m

Observation

Le bulletin a été fait il y a 21 minutes, à 13:53 UTC
Vent 4 kt de ouest/nord-ouest
Température -28°C
Humidité 51%
Pression 1014 hPa
Visibilité: 16.1 km
Ciel clair

METAR: PADE 291353Z AUTO 30004KT 10SM CLR M28/M35 A2994 RMK AO2 SLP139 T12831350 TSNO $

Heure: 05:14 (14:14 UTC)


TAF: absent

Observations et prévisions météorologiques de plus de 4000 aéroports (messages METAR et TAF).

Les stations disponibles sont représentées par des disques jaunes et rouges sur la carte.

Passer la souris dessus pour voir le nom de la station.

Cliquer dessus pour voir les observations et prévisions météorologiques.

Pour changer de carte: cliquez sur les boutons verts avec une croix noire pour zoomer, sur le bouton vert avec un tiret pour effectuer un zoom arrière, ou sur les flèches vertes pour les cartes adjacentes.


METAR-TAF: